Location: Oakland
(41.0130°N, 74.2650°W)
Time: 05:29:02
(UTC-05:00)

Daily predictions for brighter satellites

Satellite Brightness Start Highest point End
(mag) Time Altitude Azimuth Time Altitude Azimuth Time Altitude Azimuth
Cosmos 2219 Rocket 4.5 03:25:09 16° NNE 03:25:09 16° NNE 03:26:12 10° NNE
CZ-4B R/B 4.2 03:44:56 10° NNE 03:50:21 45° E 03:55:44 10° S
DELTA 2 R/B (1) 4.4 03:54:25 47° ESE 03:54:25 47° ESE 03:58:29 10° E
Cosmos 2278 Rocket 2.6 04:02:21 56° SE 04:02:21 56° SE 04:06:48 10° SSE
Cosmos 2173 Rocket 4.0 04:02:09 58° NNE 04:03:26 77° E 04:09:47 10° S
ISS -0.5 04:09:27 13° ESE 04:09:27 13° ESE 04:09:53 10° ESE
Cosmos 1459 Rocket 3.8 04:18:05 80° WNW 04:18:17 81° W 04:24:21 10° S
Cosmos 2100 Rocket 3.9 04:22:59 70° W 04:23:04 70° W 04:29:23 10° S
Atlas Centaur 2 3.8 04:25:38 32° SW 04:28:19 40° S 04:36:06 10° ESE
Meteor 1-28 Rocket 4.1 04:25:23 10° SSE 04:28:44 47° E 04:28:44 47° E
NOSS 0 Rocket 4.1 04:30:15 54° NW 04:30:15 54° NW 04:35:45 10° NNE
CZ-4B DEB 4.1 04:24:28 10° N 04:30:02 76° WNW 04:31:09 57° SW
Cosmos 1802 Rocket 3.8 04:28:36 20° NNW 04:33:02 74° W 04:39:15 10° S
Landsat 4 4.2 04:33:45 10° SSE 04:37:23 57° ENE 04:37:27 57° ENE
Cosmos 2237 Rocket 2.4 04:38:45 51° NW 04:38:45 51° NW 04:43:45 10° NNE
Lacrosse 5 rocket 3.6 04:34:23 10° S 04:38:15 27° ESE 04:42:12 10° ENE
Cosmos 2333 Rocket 3.4 04:40:56 27° NNW 04:40:56 27° NNW 04:44:10 10° N
IRS-1C Rocket 3.9 04:33:50 10° NNE 04:39:06 80° WNW 04:44:21 10° SSW
Delta 2 Rocket 4.2 04:39:31 39° S 04:39:31 39° S 04:43:43 10° ESE
SJ-6F 4.3 04:40:39 10° NNE 04:44:47 90° E 04:48:55 10° SSW
Celestis-02/Orion 38 4.4 04:42:33 10° SSE 04:47:45 73° WSW 04:49:25 43° NW
CZ-2C R/B 3.5 04:44:55 10° SSE 04:49:27 83° W 04:51:15 36° NNW
Okean-O 3.5 04:46:09 10° NNE 04:50:28 50° E 04:54:46 10° S
Cosmos 1470 Rocket 3.5 04:46:52 10° S 04:51:20 86° E 04:55:49 10° N
SL-08 R/B 4.4 04:45:57 10° N 04:52:23 75° W 04:58:44 10° S
IDEFIX/ARIANE 42P 4.0 04:47:56 10° NNE 04:52:47 38° E 04:57:35 10° SSE
Cosmos 1302 Rocket 4.0 04:54:36 45° WSW 04:55:41 53° WNW 05:00:49 10° N
Cosmos 1503 Rocket 4.2 04:53:41 13° NNW 04:58:15 70° ENE 05:03:23 10° SSE
Cosmos 2123 Rocket 3.9 04:54:19 10° SSW 05:00:30 71° W 05:06:46 10° N
Cosmos 2061 Rocket 4.3 04:56:13 10° NNW 05:02:13 43° W 05:08:11 10° SSW
Cosmos 1725 Rocket 3.8 04:56:24 10° NNW 05:02:35 73° W 05:08:42 10° S
Cosmos 2219 Rocket 3.8 05:06:55 17° NNW 05:06:55 17° NNW 05:09:03 10° N
Cosmos 1825 4.1 05:03:39 10° SSE 05:07:00 31° E 05:10:22 10° NNE
SL-16 R/B 2.1 05:05:59 10° SSW 05:11:36 68° WNW 05:17:17 10° NNE
Meteor 1-26 Rocket 4.1 05:06:53 10° NNW 05:12:25 74° W 05:18:00 10° S
USA 229 DEB 3.8 05:09:47 14° NW 05:16:05 87° NE 05:23:27 10° SE
USA 229 3.8 05:09:52 14° NW 05:16:12 87° ENE 05:23:33 10° SE
PAYLOAD A 4.3 05:12:24 10° NNE 05:17:36 72° ESE 05:22:55 10° S
Cosmos 1703 Rocket 4.3 05:14:22 10° N 05:18:41 53° E 05:22:56 10° SSE
Cosmos 1606 3.8 05:17:06 10° N 05:20:46 44° E 05:24:25 10° SSE
Abrixas rocket 3.5 05:22:26 24° NNW 05:22:40 25° NNW 05:25:24 10° NE
Cosmos 968 Rocket 4.4 05:19:42 10° N 05:24:50 49° ENE 05:29:55 10° SE
Cosmos 1447 Rocket 4.5 05:18:33 10° S 05:24:54 83° W 05:31:14 10° N
CZ-4B R/B 4.1 05:25:59 10° N 05:30:38 27° WNW 05:35:15 10° WSW
Cosmos 2242 Rocket 4.4 05:31:12 21° NW 05:33:06 28° W 05:36:51 10° SSW
Cosmos 1354 Rocket 4.1 05:28:50 10° NNW 05:33:58 56° WSW 05:39:03 10° S
USA 32 4.0 05:29:41 10° SSW 05:34:48 57° W 05:39:58 10° N
Cosmos 2297 4.0 05:30:16 14° NW 05:34:58 45° WSW 05:40:21 10° S
Cosmos 1933 Rocket 4.1 05:31:57 10° SW 05:35:55 35° WNW 05:39:57 10° N
COSMO-SKYMED 1 2.7 05:33:20 10° S 05:37:32 49° W 05:41:46 10° NNW
CZ-2C R/B 2.7 05:32:46 10° NNE 05:37:59 79° ESE 05:43:05 10° S
Cosmos 1892 3.7 05:35:02 10° SW 05:38:11 24° WNW 05:41:20 10° NNW
DELTA 2 R/B (1) 3.7 05:35:12 19° W 05:39:17 76° S 05:44:51 10° E
Cosmos 2369 Rocket 3.5 05:35:43 10° N 05:40:57 38° ENE 05:46:08 10° SE
ISS -2.0 05:42:08 16° WSW 05:42:54 17° SW 05:45:08 10° S
CZ-4 R/B 4.2 05:39:58 10° NE 05:43:02 21° E 05:46:06 10° SSE
Cosmos 2278 Rocket 3.8 05:44:16 14° W 05:44:28 14° W 05:47:22 10° SW
Cosmos 405 Rocket 3.7 05:41:23 10° N 05:44:58 47° ENE 05:48:33 10° SSE
SJ-12 4.1 05:47:11 10° NNE 05:51:20 80° ESE 05:55:25 10° S
USA 215 3.4 05:46:26 10° NE 05:53:00 84° SE 05:59:33 10° SW
CZ-3B R/B 1.8 05:53:03 10° SW 05:55:45 86° SE 05:57:25 10° NE
Cosmos 1464 Rocket 4.2 05:49:57 10° N 05:56:14 81° E 06:02:33 10° S
Meteor 2-6 Rocket 4.3 05:52:00 10° N 05:57:51 86° WSW 06:03:47 10° S
EO 1 Del DPAF 4.5 05:56:42 10° SSW 05:59:46 23° W 06:02:51 10° NW
Hubble Space Telescope 3.3 06:07:53 10° SSW 06:10:03 14° S 06:12:13 10° SE
Cosmos 1408 3.3 06:07:54 10° SW 06:11:16 32° WNW 06:14:40 10° NNW
SMAP 3.7 06:06:53 10° NNE 06:11:31 63° E 06:16:07 10° S
Cosmos 2084 Rocket 3.6 06:08:40 10° NW 06:12:22 46° WSW 06:16:05 10° SSE
Meteor 1-27 Rocket 4.0 06:08:39 10° N 06:14:34 84° E 06:20:19 10° S
Intercosmos 25 3.9 06:12:30 10° NNW 06:15:26 31° W 06:19:01 10° SSW
Lacrosse 5 rocket 1.9 06:12:51 10° WSW 06:17:20 47° NW 06:21:53 10° NE
Atlas Centaur 2 4.3 06:10:10 10° WSW 06:17:26 33° SSW 06:24:42 10° SE
